Location: Bednik
(45.3500°N, 16.3833°E)
Time: 15:49:11
(UTC+00:00)

Terra - Pass Details

Date: 08 August 2020
Orbit: 701 x 703 km, 98.2° (Epoch: 19 September)

Event Time Altitude Azimuth Distance (km) Brightness Sun altitude
Exits shadow 20:22:07 37° 117° (ESE) 1,082 2.3 -19.1°
Maximum altitude 20:23:29 49° 71° (ENE) 906 2.2 -19.3°
Drops below altitude 10° 20:28:05 10° 357° (N) 2,181 5.1 -19.8°
Sets 20:30:24 0° 352° (N) 3,104 6.2 -20.1°
